Location: Newark
(46.1292°N, 1.0086°W)
Time: 21:53:59
(UTC+00:00)

Vanguard 3 - Pass Details

Date: 16 November 2019
Orbit: 507 x 3263 km, 33.3° (Epoch: 05 December)

Event Time Altitude Azimuth Distance (km) Brightness Sun altitude
Rises 11:39:26 0° 188° (S) 6,816 13.2 25.1°
Reaches altitude 10° 11:46:12 10° 172° (S) 6,070 13.5 25.1°
Maximum altitude 11:57:22 18° 137° (SE) 5,473 12.2 25.1°
Drops below altitude 10° 12:08:08 10° 102° (ESE) 5,903 11.7 25.0°
Sets 12:14:24 0° 87° (E) 6,579 11.7 24.9°
